Newport, VT

6:17 AM EDT on September 18, 2019 (GMT -0400)
Newport State

Weather History for KEFK - August, 2019

Change the Weather History Date:

Monday, August 19, 2019

  Actual Average Record
Temperature  
Mean Temperature 72 °F -  
Max Temperature 79 °F 76 °F 90 °F (1935)
Min Temperature 64 °F 51 °F 38 °F (1968)
Cooling Degree Days 6    
Growing Degree Days 22 (Base 50)    
Moisture  
Dew Point 66 °F    
Average Humidity 81    
Maximum Humidity 100    
Minimum Humidity 63    
Precipitation  
Precipitation 0.00 in - - ()
Sea Level Pressure  
Sea Level Pressure 29.93 in    
Wind  
Wind Speed 6 mph ()    
Max Wind Speed 14 mph    
Max Gust Speed 20 mph    
Visibility 10.0 miles    
Events      
Averages and records for this station are not official NWS values.
T = Trace of Precipitation, MM = Missing Value Source: Averaged Metar Reports

Daily Weather History Graph

Daily Weather History Graph

Search for Another Location

Airport or City:

Astronomy

Aug. 19, 2019 Rise Set
Actual Time 5:55 AM EDT 7:48 PM EDT
Civil Twilight 5:23 AM EDT 8:20 PM EDT
Nautical Twilight 4:45 AM EDT 8:58 PM EDT
Astronomical Twilight 4:03 AM EDT 9:40 PM EDT
Moon 9:59 PM EDT (8/19) 9:42 AM EDT (8/19)
Length of Visible Light 14h 56m
Length of Day
13h 53m
Waning Gibbous, 85% of the Moon is Illuminated
Aug 19
Waning Gibbous
Aug 23
Last Quarter
Aug 30
New
Sep 5
First Quarter
Sep 14
Full

Hourly Weather History & Observations

Time (EDT) Temp. Dew Point Humidity Pressure Visibility Wind Dir Wind Speed Gust Speed Precip Events Conditions
12:19 AM 67.8 °F 66.2 °F 95% 29.93 in 10.0 mi SW 3.5 mph - N/A   Overcast
12:35 AM 67.5 °F 66.2 °F 96% 29.93 in 10.0 mi SSW 4.6 mph - N/A   Overcast
12:36 AM 67.5 °F 66.2 °F 96% 29.93 in 10.0 mi SSW 4.6 mph - N/A   Overcast
12:58 AM 69.3 °F 65.1 °F 87% 29.93 in 10.0 mi SSW 4.6 mph - N/A   Mostly Cloudy
1:16 AM 67.1 °F 64.8 °F 92% 29.92 in 10.0 mi Calm Calm - N/A   Scattered Clouds
1:38 AM 66.0 °F 64.8 °F 96% 29.91 in 10.0 mi Calm Calm - N/A   Clear
1:55 AM 64.9 °F 64.0 °F 97% 29.91 in 10.0 mi South 5.8 mph - N/A   Clear
2:18 AM 66.4 °F 64.6 °F 94% 29.91 in 10.0 mi SSW 4.6 mph - N/A   Clear
2:36 AM 64.9 °F 64.4 °F 98% 29.92 in 10.0 mi SSW 4.6 mph - N/A   Clear
2:58 AM 66.7 °F 64.8 °F 93% 29.93 in 10.0 mi South 4.6 mph - N/A   Clear
3:15 AM 66.2 °F 65.1 °F 96% 29.93 in 10.0 mi South 4.6 mph - N/A   Scattered Clouds
3:38 AM 66.9 °F 65.7 °F 96% 29.94 in 10.0 mi South 3.5 mph - N/A   Overcast
3:56 AM 66.6 °F 65.3 °F 96% 29.94 in 10.0 mi SSW 3.5 mph - N/A   Overcast
4:18 AM 66.7 °F 65.5 °F 96% 29.93 in 10.0 mi South 3.5 mph - N/A   Mostly Cloudy
4:35 AM 66.4 °F 65.7 °F 98% 29.93 in 10.0 mi South 4.6 mph - N/A   Scattered Clouds
4:36 AM 66.4 °F 65.8 °F 98% 29.93 in 10.0 mi South 4.6 mph - N/A   Clear
4:58 AM 66.7 °F 66.2 °F 98% 29.94 in 10.0 mi South 4.6 mph - N/A   Clear
5:16 AM 66.0 °F 65.7 °F 99% 29.94 in 10.0 mi SSW 8.1 mph - N/A   Clear
5:38 AM 66.2 °F 65.7 °F 98% 29.94 in 10.0 mi SSW 8.1 mph - N/A   Clear
5:55 AM 66.2 °F 65.7 °F 98% 29.94 in 10.0 mi SSW 5.8 mph - N/A   Scattered Clouds
5:56 AM 66.2 °F 65.7 °F 98% 29.94 in 10.0 mi SSW 5.8 mph - N/A   Scattered Clouds
6:18 AM 65.7 °F 65.7 °F 100% 29.93 in 10.0 mi SSW 6.9 mph - N/A   Scattered Clouds
6:36 AM 66.2 °F 66.2 °F 100% 29.94 in 10.0 mi SSW 5.8 mph - N/A   Clear
6:59 AM 66.7 °F 66.2 °F 98% 29.94 in 10.0 mi SSW 8.1 mph - N/A   Clear
7:15 AM 68.0 °F 66.6 °F 95% 29.94 in 10.0 mi SSW 6.9 mph - N/A   Clear
7:16 AM 68.0 °F 66.7 °F 96% 29.94 in 10.0 mi SSW 6.9 mph - N/A   Clear
7:38 AM 69.1 °F 67.3 °F 94% 29.94 in 10.0 mi SSW 5.8 mph - N/A   Clear
7:56 AM 70.2 °F 67.6 °F 92% 29.94 in 10.0 mi SSW 6.9 mph - N/A   Clear
8:19 AM 70.7 °F 67.5 °F 89% 29.93 in 10.0 mi South 6.9 mph - N/A   Clear
8:35 AM 72.0 °F 68.0 °F 87% 29.94 in 10.0 mi South 10.4 mph - N/A   Clear
8:36 AM 72.0 °F 68.0 °F 87% 29.94 in 10.0 mi South 10.4 mph - N/A   Clear
8:58 AM 70.3 °F 67.3 °F 90% 29.94 in 10.0 mi South 8.1 mph - N/A   Clear
9:16 AM 71.6 °F 67.5 °F 87% 29.93 in 10.0 mi South 10.4 mph - N/A   Clear
9:39 AM 72.1 °F 67.5 °F 85% 29.93 in 10.0 mi South 8.1 mph - N/A   Mostly Cloudy
9:55 AM 72.7 °F 67.5 °F 84% 29.93 in 10.0 mi SSW 8.1 mph - N/A   Scattered Clouds
10:18 AM 72.7 °F 67.8 °F 85% 29.93 in 10.0 mi SSW 9.2 mph - N/A   Clear
10:36 AM 75.0 °F 68.7 °F 81% 29.93 in 10.0 mi South 8.1 mph - N/A   Clear
10:59 AM 75.4 °F 68.2 °F 78% 29.92 in 10.0 mi South 5.8 mph - N/A   Clear
11:15 AM 76.3 °F 68.9 °F 78% 29.92 in 10.0 mi SSW 6.9 mph - N/A   Clear
11:16 AM 76.5 °F 68.9 °F 77% 29.93 in 10.0 mi South 6.9 mph - N/A   Clear
11:38 AM 77.9 °F 69.1 °F 74% 29.93 in 10.0 mi South 8.1 mph - N/A   Scattered Clouds
11:56 AM 77.2 °F 68.9 °F 76% 29.92 in 10.0 mi SSW 5.8 mph - N/A   Scattered Clouds
12:18 PM 76.6 °F 69.1 °F 77% 29.92 in 10.0 mi SSW 6.9 mph - N/A   Mostly Cloudy
12:35 PM 77.4 °F 70.2 °F 78% 29.92 in 10.0 mi SSW 4.6 mph - N/A   Mostly Cloudy
12:36 PM 77.5 °F 70.2 °F 78% 29.92 in 10.0 mi SW 6.9 mph - N/A   Mostly Cloudy
12:58 PM 77.0 °F 67.5 °F 72% 29.92 in 10.0 mi WSW 6.9 mph - N/A   Scattered Clouds
1:16 PM 76.5 °F 67.3 °F 73% 29.93 in 10.0 mi WSW 6.9 mph - N/A   Mostly Cloudy
1:38 PM 77.0 °F 67.5 °F 72% 29.93 in 10.0 mi SW 8.1 mph 17.3 mph N/A   Scattered Clouds
1:55 PM 76.6 °F 67.5 °F 73% 29.93 in 10.0 mi SW 6.9 mph - N/A   Scattered Clouds
1:56 PM 76.6 °F 67.5 °F 73% 29.93 in 10.0 mi SW 9.2 mph - N/A   Scattered Clouds
2:18 PM 76.5 °F 66.9 °F 72% 29.92 in 10.0 mi WSW 4.6 mph 9.2 mph N/A   Mostly Cloudy
2:36 PM 75.6 °F 66.6 °F 74% 29.93 in 10.0 mi WSW 10.4 mph - N/A   Overcast
2:59 PM 78.1 °F 68.7 °F 73% 29.92 in 10.0 mi SW 6.9 mph - N/A   Scattered Clouds
3:15 PM 77.4 °F 67.5 °F 71% 29.91 in 10.0 mi SW 12.7 mph - N/A   Scattered Clouds
3:16 PM 77.2 °F 67.3 °F 71% 29.91 in 10.0 mi SW 12.7 mph - N/A   Scattered Clouds
3:38 PM 76.8 °F 67.6 °F 73% 29.91 in 10.0 mi SSW 10.4 mph - N/A   Scattered Clouds
3:56 PM 78.3 °F 67.8 °F 70% 29.91 in 10.0 mi WSW 11.5 mph 18.4 mph N/A   Clear
4:19 PM 77.0 °F 66.9 °F 71% 29.90 in 10.0 mi SW 11.5 mph - N/A   Mostly Cloudy
4:35 PM 77.5 °F 67.6 °F 71% 29.90 in 10.0 mi SW 10.4 mph - N/A   Scattered Clouds
4:36 PM 77.7 °F 67.6 °F 71% 29.90 in 10.0 mi SW 11.5 mph - N/A   Scattered Clouds
4:58 PM 78.8 °F 66.2 °F 65% 29.89 in 10.0 mi WSW 13.8 mph 18.4 mph N/A   Clear
5:16 PM 78.6 °F 65.5 °F 64% 29.89 in 10.0 mi WSW 13.8 mph 19.6 mph N/A   Scattered Clouds
5:39 PM 78.4 °F 66.0 °F 66% 29.89 in 10.0 mi WSW 8.1 mph - N/A   Scattered Clouds
5:55 PM 79.0 °F 65.7 °F 64% 29.90 in 10.0 mi WSW 10.4 mph - N/A   Scattered Clouds
5:56 PM 79.0 °F 65.5 °F 63% 29.90 in 10.0 mi WSW 9.2 mph - N/A   Scattered Clouds
6:18 PM 77.9 °F 65.1 °F 65% 29.90 in 10.0 mi SW 10.4 mph - N/A   Scattered Clouds
6:36 PM 76.6 °F 64.6 °F 66% 29.90 in 10.0 mi SW 8.1 mph - N/A   Mostly Cloudy
6:55 PM 76.3 °F 64.8 °F 67% 29.90 in 10.0 mi SW 5.8 mph - N/A   Scattered Clouds
6:59 PM 75.6 °F 65.3 °F 70% 29.90 in 10.0 mi SSW 4.6 mph - N/A   Mostly Cloudy
7:15 PM 75.6 °F 64.9 °F 69% 29.91 in 10.0 mi SW 6.9 mph - N/A   Scattered Clouds
7:38 PM 74.1 °F 63.7 °F 70% 29.92 in 10.0 mi WSW 6.9 mph - N/A   Clear
7:56 PM 72.7 °F 63.7 °F 73% 29.93 in 10.0 mi WSW 4.6 mph - N/A   Clear
8:19 PM 72.1 °F 63.5 °F 74% 29.94 in 10.0 mi WSW 5.8 mph - N/A   Scattered Clouds
8:35 PM 71.6 °F 63.0 °F 74% 29.95 in 10.0 mi West 4.6 mph - N/A   Scattered Clouds
8:36 PM 71.6 °F 63.0 °F 74% 29.95 in 10.0 mi West 4.6 mph - N/A   Scattered Clouds
8:58 PM 71.6 °F 62.8 °F 74% 29.97 in 10.0 mi WSW 5.8 mph - N/A   Scattered Clouds
9:16 PM 71.6 °F 62.6 °F 73% 29.97 in 10.0 mi WSW 6.9 mph - N/A   Scattered Clouds
9:35 PM 71.4 °F 61.7 °F 71% 29.97 in 10.0 mi WSW 10.4 mph - N/A   Scattered Clouds
9:55 PM 71.2 °F 61.3 °F 71% 29.98 in 10.0 mi WSW 8.1 mph - N/A   Clear
10:18 PM 70.9 °F 61.0 °F 71% 29.98 in 10.0 mi SW 8.1 mph 16.1 mph N/A   Clear
10:35 PM 71.2 °F 60.6 °F 69% 29.98 in 10.0 mi WSW 8.1 mph 17.3 mph N/A   Mostly Cloudy
10:36 PM 71.4 °F 60.6 °F 69% 29.98 in 10.0 mi WSW 8.1 mph 17.3 mph N/A   Mostly Cloudy
10:55 PM 72.0 °F 60.8 °F 68% 29.98 in 10.0 mi West 13.8 mph 19.6 mph N/A   Mostly Cloudy
11:16 PM 71.8 °F 60.8 °F 68% 29.99 in 10.0 mi WSW 8.1 mph 17.3 mph N/A   Scattered Clouds
11:38 PM 70.7 °F 60.8 °F 71% 29.99 in 10.0 mi WSW 10.4 mph - N/A   Clear
11:55 PM 70.3 °F 60.8 °F 72% 30.00 in 10.0 mi WSW 8.1 mph - N/A   Clear
11:56 PM 70.5 °F 60.8 °F 71% 30.00 in 10.0 mi West 5.8 mph - N/A   Clear